Regional Weather Roundup
Issued by NWS Sterling, VA

Home | Current Version | Previous Version | Graphics & Text | Print | Product List | Glossary On
Versions: 1 2 3 4 5 6 7 8 9 10 11 12 13 14 15 16 17 18 19 20 21 22 23 24 25 26 27 28 29 30 31 32 33 34 35 36 37 38 39 40 41 42 43 44 45 46 47 48 49 50
885
ASUS41 KLWX 110210
RWRLWX

REGIONAL WEATHER ROUNDUP
NATIONAL WEATHER SERVICE BALTIMORE MD/WASHINGTON DC
900 PM EST SAT DEC 10 2016

Note: "FAIR" indicates few or no clouds below 12,000 feet
with no significant weather and/or obstructions to visibility.
 TC=TEMPERATURE CELSIUS

 * =Non NWS site. Station does not report precipitation (e.g. rain,
    snow, etc.), thunder, or fog.

DCZ001-MDZ009-015-VAZ040>042-051-053>054-110300-
WASHINGTON METRO

CITY           SKY/WX    TMP DP  RH WIND       PRES   REMARKS
WASHINGTON NAT CLEAR     31  12  45 NW10      30.53S WCI  22
DULLES         CLEAR     26  11  52 NW6       30.52S
ANDREWS AFB    CLEAR     28  11  48 NW12      30.49F WCI  18
QUANTICO       CLEAR     30  13  49 CALM      30.55S
COLLEGE PARK*  CLEAR     30  12  47 NW3       30.52S
LEESBURG*      CLEAR     28  19  69 NW3       30.53S
MANASSAS*      CLEAR    N/A N/A N/A N10       30.53S
GAITHERSBURG*  CLEAR     27   9  46 NW3       30.55R

$$

MDZ006>007-011-014-110300-
BALTIMORE METRO

CITY           SKY/WX    TMP DP  RH WIND       PRES   REMARKS
BWI AIRPORT    CLEAR     27  12  53 W5        30.51S
MD SCIENCE CTR   N/A     31  10  41 MISG      30.50F
MARTIN STATE   CLEAR     30  16  55 W6        30.52F
ANNAPOLIS      CLEAR     32  14  47 W7        30.52S
FORT MEADE*    CLEAR     27  14  59 CALM      30.53F

$$

MDZ012-015-019>023-110300-
MARYLAND EASTERN SHORE

CITY           SKY/WX    TMP DP  RH WIND       PRES   REMARKS
OCEAN CITY     CLEAR     28  16  60 NW5       30.51S
SALISBURY      PTCLDY    28  16  60 NW5       30.51S
BAY BRIDGE AP* CLEAR     30  14  51 MISG      30.51F
CAMBRIDGE*     CLEAR     32  16  51 NW5       30.51S
EASTON*        CLEAR     30  14  51 NW7       30.55S

$$

MDZ017>025-110300-
SOUTHERN MARYLAND

CITY           SKY/WX    TMP DP  RH WIND       PRES   REMARKS
PATUXENT RIVER CLEAR     31  15  52 N13       30.52S WCI  21
ST INIGOES     CLEAR     31  15  52 N3        30.52S
LEONARDTOWN*   CLEAR     28  14  54 CALM      30.53S

$$

MDZ003>005-110300-
NORTH CENTRAL MARYLAND

CITY           SKY/WX    TMP DP  RH WIND       PRES   REMARKS
FREDERICK*     NOT AVBL
HAGERSTOWN APT   N/A     26  11  52 SW3       30.49R
WESTMINSTER*     N/A     23  12  63 SW5       30.46F

$$

MDZ501>502-110300-
WESTERN MARYLAND

CITY           SKY/WX    TMP DP  RH WIND       PRES   REMARKS
OAKLAND*       CLOUDY    14  12  92 W5        30.32S
CUMBERLAND*    NOT AVBL

$$

VAZ025>031-110300-
SHENANDOAH VALLEY

CITY           SKY/WX    TMP DP  RH WIND       PRES   REMARKS
WINCHESTER*    CLEAR     23  12  63 S5        30.50R
FRONT ROYAL*   FAIR      23  12  63 NW3       30.48F
LURAY*         FAIR      25  18  74 N5        30.48S
NEW MARKET*    FAIR      20  13  73 CALM      30.47F
STAUNTON*      CLEAR     24  12  62 NE5       30.47F
WAYNESBORO*    FAIR      24   9  52 CALM      30.44S

$$

WVZ021-048>050-054>055-110300-
EASTERN WEST VIRGINIA PANHANDLE

CITY           SKY/WX    TMP DP  RH WIND       PRES   REMARKS
MARTINSBURG    CLEAR     22  11  62 SW6       30.50S
PETERSBURG*    CLEAR     22  15  74 CALM      30.49S

$$

VAZ036>039-050-110300-
CENTRAL FOOTHILLS

CITY           SKY/WX    TMP DP  RH WIND       PRES   REMARKS
CHARLOTTESVILL CLEAR     28  13  53 E7        30.47S
CULPEPER*      CLEAR     23  15  70 CALM      30.53S
ORANGE*          N/A     27  16  63 CALM      30.52S
GORDONSVILLE*  FAIR      25  16  69 CALM      30.50S
WARRENTON*     FAIR      22  11  63 CALM      30.51F

$$

VAZ055>057-110300-
NORTH AND CENTRAL PIEDMONT

CITY           SKY/WX    TMP DP  RH WIND       PRES   REMARKS
FREDERICKSBRG* CLEAR     30  16  56 CALM      30.53S
STAFFORD*      CLEAR     26  13  58 CALM      30.57S

$$

NCZ024-NYZ072-PAZ021-071-VAZ022-071-110300-
OTHER REGIONAL OBSERVATIONS

CITY           SKY/WX    TMP DP  RH WIND       PRES   REMARKS
NEW YORK CITY  CLEAR     32  19  58 CALM      30.45S
PHILADELPHIA   CLEAR     31  14  49 W8        30.49S WCI  23
PITTSBURGH     CLOUDY    24  17  74 SW5       30.44S
ROANOKE        CLEAR     29  11  47 CALM      30.47R
RICHMOND       CLEAR     28  18  66 CALM      30.51S
RALEIGH        PTCLDY    29  16  58 CALM      30.50F

$$

ANZ530>537-110300-
MARINE OBSERVATIONS

STATION/POSITION TIME  TEMP    WIND        PRES
                       AIR SEA DIR/SP/G
                 (UTC) (F)     (DEG/KT/KT) (MB)
THOMAS PT LIGHT  0100   33 45  310/ 11/ 13   N/A
BALT KEY BRIDGE  0148   31     270/ 10/ 12 1033.2F
COVE POINT       0148   33     350/ 15/ 19 1034.0S
LEWISETTA        0148   34 43   10/  8/ 12 1033.2F
SOLOMONS ISLAND  0148          340/  7/ 10   N/A
PINEY POINT      0148           10/  9/ 10   N/A

$$





USA.gov is the U.S. government's official web portal to all federal, state and local government web resources and services.